AUA45M LOWW-LEMG

Flight info

Callsign AUA45M
Flight time 2h 49m
Altitude 34000
Route OSPEN DCT ABRUK DCT SETAL DCT DETSA/N0452F350 DCT GEKBA/N0446F370 DCT VAMTU DCT KOLON DCT GANGU DCT PADKO DCT DIVKO DCT NILDU DCT NENDA N975 BCN M985 VIBAS
Aircraft A320/M-SDE3FGHIRWY/LB1

Departure

Time 2026-04-25 09:22
Airport Vienna International Airport (LOWW)

Arrival

Time 2026-04-25 12:12
Airport Málaga-Costa del Sol Airport (LEMG)
Time Latitude Longitude Altitude Speed Heading
2026-04-25 08:50 48.11880 16.56822 620 ft 0 kts 206°
2026-04-25 08:51 48.11862 16.56877 626 ft 0 kts 206°
2026-04-25 09:13 48.11863 16.56877 608 ft 1 kts 206°
2026-04-25 09:13 48.11876 16.56887 620 ft 3 kts 206°
2026-04-25 09:14 48.11894 16.56900 612 ft 3 kts 206°
2026-04-25 09:14 48.11911 16.56913 624 ft 3 kts 200°
2026-04-25 09:14 48.11925 16.56917 622 ft 3 kts 139°
2026-04-25 09:14 48.11935 16.56898 624 ft 1 kts 116°
2026-04-25 09:15 48.11934 16.56899 616 ft 2 kts 116°
2026-04-25 09:15 48.11929 16.56916 622 ft 1 kts 116°
2026-04-25 09:15 48.11928 16.56917 622 ft 0 kts 116°
2026-04-25 09:16 48.11924 16.56930 620 ft 4 kts 116°
2026-04-25 09:17 48.11882 16.57061 617 ft 9 kts 116°
2026-04-25 09:17 48.11857 16.57146 613 ft 9 kts 102°
2026-04-25 09:17 48.11843 16.57250 615 ft 12 kts 116°
2026-04-25 09:18 48.11789 16.57353 620 ft 15 kts 159°
2026-04-25 09:18 48.11685 16.57398 609 ft 16 kts 164°
2026-04-25 09:18 48.11570 16.57447 611 ft 16 kts 164°
2026-04-25 09:18 48.11483 16.57451 609 ft 12 kts 199°
2026-04-25 09:19 48.11404 16.57397 609 ft 13 kts 206°
2026-04-25 09:19 48.11315 16.57333 613 ft 15 kts 206°
2026-04-25 09:19 48.11234 16.57283 613 ft 12 kts 185°
2026-04-25 09:19 48.11184 16.57352 620 ft 10 kts 114°
2026-04-25 09:20 48.11152 16.57449 618 ft 11 kts 116°
2026-04-25 09:20 48.11118 16.57553 615 ft 11 kts 116°
2026-04-25 09:20 48.11070 16.57647 609 ft 11 kts 154°
2026-04-25 09:20 48.11009 16.57623 609 ft 8 kts 208°
2026-04-25 09:21 48.10962 16.57589 617 ft 7 kts 205°
2026-04-25 09:21 48.10920 16.57546 617 ft 9 kts 239°
2026-04-25 09:21 48.10938 16.57459 609 ft 19 kts 297°
2026-04-25 09:21 48.11109 16.56937 620 ft 89 kts 296°
2026-04-25 09:22 48.11465 16.55841 614 ft 143 kts 296°
2026-04-25 09:22 48.11956 16.54333 836 ft 166 kts 298°
2026-04-25 09:22 48.12357 16.52698 1501 ft 170 kts 272°
2026-04-25 09:22 48.11959 16.51038 1941 ft 186 kts 227°
2026-04-25 09:23 48.10864 16.49795 2237 ft 210 kts 216°
2026-04-25 09:23 48.09553 16.48515 2532 ft 238 kts 214°
2026-04-25 09:23 48.08075 16.47172 3055 ft 255 kts 215°
2026-04-25 09:23 48.06629 16.45636 3928 ft 257 kts 223°
2026-04-25 09:24 48.05233 16.43943 4793 ft 258 kts 226°
2026-04-25 09:24 48.03853 16.42198 5650 ft 263 kts 227°
2026-04-25 09:24 48.02453 16.40386 6335 ft 274 kts 227°
2026-04-25 09:24 48.01120 16.38237 6652 ft 291 kts 243°
2026-04-25 09:25 48.00323 16.35380 6925 ft 309 kts 255°
2026-04-25 09:25 47.99633 16.32265 7379 ft 322 kts 255°
2026-04-25 09:25 47.98920 16.29055 8056 ft 329 kts 253°
2026-04-25 09:25 47.98109 16.25816 8756 ft 336 kts 252°
2026-04-25 09:26 47.97228 16.22563 9461 ft 342 kts 251°
2026-04-25 09:26 47.96302 16.19260 10147 ft 348 kts 250°
2026-04-25 09:26 47.95356 16.15915 10849 ft 351 kts 250°
2026-04-25 09:26 47.94408 16.12540 11559 ft 354 kts 250°
2026-04-25 09:27 47.93461 16.09141 12253 ft 357 kts 250°
2026-04-25 09:27 47.92507 16.05693 12959 ft 360 kts 250°
2026-04-25 09:27 47.91553 16.02235 13658 ft 363 kts 250°
2026-04-25 09:27 47.90591 15.98743 14289 ft 365 kts 250°
2026-04-25 09:28 47.89623 15.95231 14896 ft 368 kts 250°
2026-04-25 09:28 47.88647 15.91698 15532 ft 370 kts 250°
2026-04-25 09:28 47.87661 15.88135 16135 ft 373 kts 250°
2026-04-25 09:28 47.86683 15.84604 16730 ft 375 kts 250°
2026-04-25 09:29 47.85684 15.80999 17309 ft 378 kts 251°
2026-04-25 09:29 47.84679 15.77386 17979 ft 378 kts 249°
2026-04-25 09:29 47.83667 15.73755 18597 ft 380 kts 250°
2026-04-25 09:29 47.82650 15.70109 19179 ft 381 kts 251°
2026-04-25 09:30 47.81632 15.66466 19666 ft 385 kts 250°
2026-04-25 09:30 47.80597 15.62774 20139 ft 388 kts 250°
2026-04-25 09:30 47.79555 15.59059 20674 ft 390 kts 250°
2026-04-25 09:30 47.78504 15.55320 21165 ft 393 kts 250°
2026-04-25 09:31 47.77449 15.51573 21646 ft 395 kts 250°
2026-04-25 09:31 47.76732 15.49025 21952 ft 397 kts 250°
2026-04-25 09:31 47.75308 15.43989 22544 ft 401 kts 249°
2026-04-25 09:31 47.74222 15.40164 23040 ft 402 kts 250°
2026-04-25 09:32 47.73137 15.36329 23453 ft 405 kts 250°
2026-04-25 09:32 47.72043 15.32455 23803 ft 408 kts 251°
2026-04-25 09:32 47.70941 15.28562 24134 ft 410 kts 249°
2026-04-25 09:32 47.69831 15.24651 24447 ft 412 kts 249°
2026-04-25 09:33 47.68713 15.20716 24782 ft 414 kts 249°
2026-04-25 09:33 47.67588 15.16770 25135 ft 416 kts 249°
2026-04-25 09:33 47.66459 15.12817 25473 ft 417 kts 249°
2026-04-25 09:33 47.65321 15.08847 25820 ft 419 kts 249°
2026-04-25 09:34 47.64176 15.04861 26097 ft 421 kts 249°
2026-04-25 09:34 47.63022 15.00851 26382 ft 424 kts 249°
2026-04-25 09:34 47.61864 14.96837 26685 ft 425 kts 249°
2026-04-25 09:34 47.60697 14.92803 27001 ft 426 kts 249°
2026-04-25 09:35 47.59543 14.88814 27305 ft 427 kts 248°
2026-04-25 09:35 47.58372 14.84764 27572 ft 429 kts 249°
2026-04-25 09:35 47.57197 14.80698 27856 ft 430 kts 248°
2026-04-25 09:35 47.56017 14.76615 28122 ft 432 kts 248°
2026-04-25 09:36 47.54838 14.72536 28393 ft 432 kts 248°
2026-04-25 09:36 47.53649 14.68437 28627 ft 433 kts 248°
2026-04-25 09:36 47.52454 14.64339 28871 ft 435 kts 248°
2026-04-25 09:36 47.51252 14.60231 29130 ft 435 kts 248°
2026-04-25 09:37 47.50053 14.56131 29445 ft 435 kts 248°
2026-04-25 09:37 47.48851 14.52030 29736 ft 435 kts 248°
2026-04-25 09:37 47.47647 14.47934 30073 ft 434 kts 248°
2026-04-25 09:37 47.46446 14.43851 30347 ft 433 kts 248°
2026-04-25 09:38 47.45244 14.39768 30629 ft 432 kts 248°
2026-04-25 09:38 47.44046 14.35707 30922 ft 431 kts 248°
2026-04-25 09:38 47.42850 14.31663 31207 ft 430 kts 248°
2026-04-25 09:38 47.41654 14.27623 31505 ft 428 kts 248°
2026-04-25 09:39 47.40463 14.23603 31780 ft 427 kts 248°
2026-04-25 09:39 47.39273 14.19597 32076 ft 426 kts 248°
2026-04-25 09:39 47.38090 14.15600 32364 ft 425 kts 248°
2026-04-25 09:40 47.35740 14.07690 32908 ft 423 kts 248°
2026-04-25 09:40 47.34543 14.03681 33153 ft 422 kts 248°
2026-04-25 09:40 47.33372 13.99766 33406 ft 422 kts 248°
2026-04-25 09:40 47.32189 13.95813 33675 ft 421 kts 248°
2026-04-25 09:41 47.31006 13.91868 33952 ft 421 kts 247°
2026-04-25 09:41 47.29822 13.87929 34077 ft 421 kts 248°
2026-04-25 09:41 47.27451 13.80053 34116 ft 421 kts 248°
2026-04-25 09:42 47.25074 13.72177 34113 ft 421 kts 247°
2026-04-25 09:42 47.23071 13.65577 34124 ft 421 kts 247°
2026-04-25 09:43 47.20703 13.57777 34100 ft 420 kts 247°
2026-04-25 09:43 47.18315 13.49913 34112 ft 422 kts 247°
2026-04-25 09:44 47.15916 13.42053 34104 ft 422 kts 247°
2026-04-25 09:44 47.13506 13.34190 34105 ft 422 kts 247°
2026-04-25 09:45 47.11092 13.26333 34102 ft 422 kts 246°
2026-04-25 09:45 47.08670 13.18485 34104 ft 422 kts 246°
2026-04-25 09:46 47.06245 13.10654 34099 ft 421 kts 246°
2026-04-25 09:46 47.03819 13.02816 34081 ft 422 kts 246°
2026-04-25 09:47 47.01386 12.94990 34087 ft 423 kts 246°
2026-04-25 09:47 46.98933 12.87157 34089 ft 423 kts 246°
2026-04-25 09:48 46.96474 12.79331 34090 ft 423 kts 246°
2026-04-25 09:48 46.94018 12.71514 34098 ft 423 kts 246°
2026-04-25 09:49 46.91579 12.63738 34108 ft 423 kts 246°
2026-04-25 09:49 46.89111 12.55925 34104 ft 423 kts 246°
2026-04-25 09:50 46.86636 12.48122 34118 ft 423 kts 246°
2026-04-25 09:50 46.84151 12.40314 34133 ft 424 kts 245°
2026-04-25 09:51 46.82900 12.36406 34260 ft 425 kts 245°
2026-04-25 09:51 46.81650 12.32500 34517 ft 425 kts 245°
2026-04-25 09:51 46.80326 12.28653 34759 ft 424 kts 240°
2026-04-25 09:51 46.78675 12.25094 34994 ft 424 kts 234°
2026-04-25 09:52 46.76901 12.21662 35136 ft 423 kts 234°
2026-04-25 09:52 46.75126 12.18246 35109 ft 423 kts 234°
2026-04-25 09:52 46.71575 12.11434 35103 ft 423 kts 234°
2026-04-25 09:53 46.68007 12.04608 35101 ft 423 kts 234°
2026-04-25 09:53 46.64445 11.97804 35098 ft 423 kts 234°
2026-04-25 09:54 46.60875 11.90992 35099 ft 423 kts 234°
2026-04-25 09:54 46.57308 11.84205 35097 ft 423 kts 234°
2026-04-25 09:55 46.53724 11.77406 35089 ft 423 kts 234°
2026-04-25 09:55 46.50143 11.70626 35088 ft 424 kts 233°
2026-04-25 09:56 46.46569 11.63892 35089 ft 424 kts 233°
2026-04-25 09:56 46.42971 11.57121 35089 ft 424 kts 233°
2026-04-25 09:57 46.39368 11.50351 35099 ft 424 kts 233°
2026-04-25 09:57 46.35760 11.43588 35079 ft 425 kts 233°
2026-04-25 09:58 46.32136 11.36833 35083 ft 425 kts 233°
2026-04-25 09:58 46.28508 11.30069 35087 ft 425 kts 233°
2026-04-25 09:59 46.24881 11.23323 35188 ft 425 kts 233°
2026-04-25 09:59 46.21251 11.16591 35190 ft 424 kts 233°
2026-04-25 10:00 46.17630 11.09875 35178 ft 424 kts 233°
2026-04-25 10:00 46.14010 11.03175 35166 ft 423 kts 233°
2026-04-25 10:01 46.10374 10.96485 35153 ft 424 kts 233°
2026-04-25 10:01 46.06810 10.89944 35135 ft 424 kts 233°
2026-04-25 10:02 46.03167 10.83273 35105 ft 424 kts 233°
2026-04-25 10:02 45.99518 10.76600 35101 ft 424 kts 233°
2026-04-25 10:03 45.95866 10.69917 35105 ft 425 kts 233°
2026-04-25 10:03 45.92234 10.63302 35114 ft 425 kts 232°
2026-04-25 10:04 45.88572 10.56651 35113 ft 424 kts 232°
2026-04-25 10:04 45.84906 10.50011 35095 ft 425 kts 232°
2026-04-25 10:05 45.81231 10.43370 35084 ft 425 kts 232°
2026-04-25 10:05 45.77555 10.36740 35074 ft 425 kts 232°
2026-04-25 10:06 45.73866 10.30115 35072 ft 426 kts 232°
2026-04-25 10:06 45.70171 10.23488 35058 ft 426 kts 232°
2026-04-25 10:07 45.66478 10.16871 35064 ft 426 kts 232°
2026-04-25 10:07 45.62778 10.10256 35067 ft 426 kts 232°
2026-04-25 10:08 45.59077 10.03659 35070 ft 426 kts 232°
2026-04-25 10:08 45.55369 9.97072 35072 ft 426 kts 232°
2026-04-25 10:09 45.51649 9.90490 35065 ft 426 kts 232°
2026-04-25 10:09 45.47928 9.83905 35065 ft 427 kts 232°
2026-04-25 10:10 45.44229 9.77364 35113 ft 427 kts 232°
2026-04-25 10:10 45.40491 9.70781 35122 ft 427 kts 232°
2026-04-25 10:11 45.36749 9.64207 35126 ft 428 kts 232°
2026-04-25 10:11 45.33005 9.57636 35114 ft 428 kts 232°
2026-04-25 10:12 45.29250 9.51063 35110 ft 428 kts 232°
2026-04-25 10:13 45.23602 9.41225 35102 ft 429 kts 232°
2026-04-25 10:13 45.19833 9.34668 35091 ft 429 kts 232°
2026-04-25 10:14 45.16050 9.28109 35083 ft 430 kts 231°
2026-04-25 10:14 45.12253 9.21549 35089 ft 431 kts 231°
2026-04-25 10:15 45.08459 9.14994 35087 ft 431 kts 231°
2026-04-25 10:15 45.04662 9.08441 35085 ft 430 kts 231°
2026-04-25 10:16 45.00860 9.01897 35074 ft 431 kts 231°
2026-04-25 10:16 44.97074 8.95388 35082 ft 432 kts 231°
2026-04-25 10:17 44.93246 8.88848 35087 ft 432 kts 231°
2026-04-25 10:17 44.89408 8.82309 35090 ft 433 kts 231°
2026-04-25 10:18 44.85572 8.75774 35091 ft 433 kts 231°
2026-04-25 10:18 44.81726 8.69232 35084 ft 434 kts 231°
2026-04-25 10:19 44.77868 8.62698 35078 ft 434 kts 231°
2026-04-25 10:19 44.74003 8.56163 35084 ft 435 kts 231°
2026-04-25 10:20 44.70132 8.49628 35083 ft 435 kts 231°
2026-04-25 10:20 44.66256 8.43093 35081 ft 435 kts 231°
2026-04-25 10:21 44.62376 8.36584 35086 ft 435 kts 231°
2026-04-25 10:21 44.58478 8.30054 35078 ft 436 kts 231°
2026-04-25 10:22 44.54582 8.23545 35079 ft 436 kts 231°
2026-04-25 10:22 44.50682 8.17042 35071 ft 437 kts 231°
2026-04-25 10:23 44.46764 8.10515 35074 ft 437 kts 231°
2026-04-25 10:23 44.42846 8.04008 35071 ft 437 kts 230°
2026-04-25 10:24 44.39048 7.97716 35076 ft 437 kts 230°
2026-04-25 10:24 44.35116 7.91216 35079 ft 438 kts 230°
2026-04-25 10:25 44.31178 7.84717 35065 ft 439 kts 230°
2026-04-25 10:25 44.27206 7.78251 35079 ft 439 kts 227°
2026-04-25 10:26 44.22715 7.72562 35074 ft 440 kts 222°
2026-04-25 10:26 44.18128 7.66924 35076 ft 440 kts 222°
2026-04-25 10:27 44.13659 7.61112 35071 ft 439 kts 230°
2026-04-25 10:27 44.09665 7.54671 35081 ft 440 kts 230°
2026-04-25 10:28 44.05706 7.48344 35085 ft 440 kts 229°
2026-04-25 10:28 44.01675 7.41933 35084 ft 440 kts 230°
2026-04-25 10:29 43.97653 7.35530 35082 ft 440 kts 229°
2026-04-25 10:29 43.93625 7.29129 35081 ft 441 kts 229°
2026-04-25 10:30 43.89600 7.22757 35089 ft 442 kts 229°
2026-04-25 10:30 43.85545 7.16352 35093 ft 442 kts 229°
2026-04-25 10:31 43.81487 7.09951 35097 ft 442 kts 229°
2026-04-25 10:31 43.77425 7.03550 35095 ft 443 kts 229°
2026-04-25 10:32 43.73402 6.97093 35096 ft 443 kts 234°
2026-04-25 10:32 43.70903 6.90965 35097 ft 442 kts 248°
2026-04-25 10:33 43.68606 6.83093 35094 ft 442 kts 248°
2026-04-25 10:33 43.66290 6.75240 35104 ft 441 kts 248°
2026-04-25 10:34 43.63962 6.67400 35104 ft 441 kts 248°
2026-04-25 10:34 43.61636 6.59563 35087 ft 442 kts 248°
2026-04-25 10:35 43.59300 6.51712 35074 ft 443 kts 248°
2026-04-25 10:35 43.56955 6.43856 35078 ft 443 kts 248°
2026-04-25 10:36 43.54603 6.35998 35075 ft 444 kts 248°
2026-04-25 10:36 43.52238 6.28130 35092 ft 444 kts 248°
2026-04-25 10:37 43.49859 6.20266 35094 ft 445 kts 248°
2026-04-25 10:37 43.47498 6.12459 35103 ft 445 kts 248°
2026-04-25 10:38 43.45120 6.04596 35094 ft 445 kts 248°
2026-04-25 10:38 43.42728 5.96723 35104 ft 446 kts 248°
2026-04-25 10:39 43.40321 5.88847 35113 ft 447 kts 248°
2026-04-25 10:39 43.37911 5.80977 35109 ft 447 kts 248°
2026-04-25 10:40 43.35493 5.73100 35125 ft 447 kts 248°
2026-04-25 10:40 43.33075 5.65233 35133 ft 447 kts 247°
2026-04-25 10:41 43.30648 5.57389 35136 ft 446 kts 248°
2026-04-25 10:41 43.28222 5.49546 35130 ft 447 kts 247°
2026-04-25 10:42 43.25787 5.41703 35121 ft 447 kts 247°
2026-04-25 10:42 43.23335 5.33852 35115 ft 448 kts 248°
2026-04-25 10:43 43.20900 5.26061 35128 ft 447 kts 247°
2026-04-25 10:43 43.18451 5.18244 35135 ft 446 kts 247°
2026-04-25 10:44 43.15996 5.10436 35139 ft 446 kts 248°
2026-04-25 10:44 43.13546 5.02651 35144 ft 446 kts 247°
2026-04-25 10:45 43.11084 4.94857 35136 ft 445 kts 247°
2026-04-25 10:45 43.08612 4.87090 35136 ft 445 kts 247°
2026-04-25 10:46 43.05938 4.79483 35146 ft 446 kts 237°
2026-04-25 10:46 43.01871 4.73123 35142 ft 446 kts 222°
2026-04-25 10:47 42.97210 4.67519 35134 ft 447 kts 222°
2026-04-25 10:47 42.92550 4.61912 35151 ft 447 kts 222°
2026-04-25 10:48 42.87888 4.56289 35136 ft 447 kts 222°
2026-04-25 10:48 42.83236 4.50680 35137 ft 447 kts 222°
2026-04-25 10:49 42.78602 4.45124 35145 ft 447 kts 222°
2026-04-25 10:49 42.73931 4.39548 35150 ft 447 kts 222°
2026-04-25 10:50 42.69265 4.33974 35154 ft 447 kts 222°
2026-04-25 10:50 42.64593 4.28401 35151 ft 447 kts 222°
2026-04-25 10:51 42.59915 4.22837 35149 ft 447 kts 221°
2026-04-25 10:51 42.55241 4.17286 35145 ft 446 kts 222°
2026-04-25 10:52 42.50564 4.11744 35140 ft 447 kts 221°
2026-04-25 10:52 42.45884 4.06211 35143 ft 447 kts 221°
2026-04-25 10:53 42.41195 4.00669 35148 ft 447 kts 222°
2026-04-25 10:53 42.36498 3.95142 35141 ft 447 kts 221°
2026-04-25 10:54 42.31806 3.89632 35141 ft 447 kts 221°
2026-04-25 10:54 42.27150 3.84144 35136 ft 447 kts 225°
2026-04-25 10:55 42.23268 3.77620 35125 ft 446 kts 236°
2026-04-25 10:55 42.19677 3.70769 35128 ft 447 kts 235°
2026-04-25 10:56 42.16064 3.63938 35135 ft 448 kts 235°
2026-04-25 10:56 42.12460 3.57091 35143 ft 448 kts 234°
2026-04-25 10:57 42.08835 3.50276 35140 ft 448 kts 235°
2026-04-25 10:57 42.05195 3.43446 35140 ft 449 kts 234°
2026-04-25 10:58 42.01564 3.36624 35141 ft 449 kts 235°
2026-04-25 10:58 41.97929 3.29811 35138 ft 449 kts 234°
2026-04-25 10:59 41.94283 3.23005 35137 ft 448 kts 234°
2026-04-25 10:59 41.90634 3.16210 35129 ft 449 kts 234°
2026-04-25 11:00 41.86985 3.09407 35137 ft 449 kts 234°
2026-04-25 11:00 41.83332 3.02617 35122 ft 449 kts 234°
2026-04-25 11:01 41.79668 2.95833 35126 ft 449 kts 234°
2026-04-25 11:01 41.76025 2.89107 35126 ft 449 kts 234°
2026-04-25 11:02 41.72352 2.82330 35137 ft 449 kts 234°
2026-04-25 11:02 41.68677 2.75573 35141 ft 449 kts 234°
2026-04-25 11:03 41.64919 2.68900 35140 ft 449 kts 232°
2026-04-25 11:03 41.61062 2.62357 35138 ft 449 kts 231°
2026-04-25 11:04 41.57184 2.55802 35149 ft 449 kts 232°
2026-04-25 11:04 41.53340 2.49240 35155 ft 449 kts 231°
2026-04-25 11:05 41.49496 2.42671 35151 ft 449 kts 231°
2026-04-25 11:05 41.45653 2.36107 35164 ft 449 kts 231°
2026-04-25 11:06 41.41795 2.29540 35167 ft 450 kts 232°
2026-04-25 11:06 41.37934 2.22990 35177 ft 449 kts 231°
2026-04-25 11:07 41.34101 2.16504 35181 ft 449 kts 231°
2026-04-25 11:07 41.30230 2.09988 35185 ft 449 kts 230°
2026-04-25 11:08 41.26141 2.03720 35177 ft 449 kts 227°
2026-04-25 11:08 41.21905 1.97633 35171 ft 449 kts 226°
2026-04-25 11:09 41.17686 1.91525 35166 ft 449 kts 227°
2026-04-25 11:09 41.13508 1.85369 35160 ft 449 kts 227°
2026-04-25 11:10 41.09375 1.79256 35157 ft 449 kts 227°
2026-04-25 11:10 41.05192 1.73103 35159 ft 449 kts 227°
2026-04-25 11:11 41.01001 1.66972 35163 ft 449 kts 227°
2026-04-25 11:11 40.96811 1.60840 35161 ft 449 kts 227°
2026-04-25 11:12 40.92618 1.54712 35158 ft 449 kts 227°
2026-04-25 11:12 40.88417 1.48598 35161 ft 449 kts 227°
2026-04-25 11:13 40.84243 1.42539 35160 ft 449 kts 227°
2026-04-25 11:13 40.80038 1.36435 35155 ft 449 kts 227°
2026-04-25 11:14 40.75828 1.30344 35151 ft 449 kts 227°
2026-04-25 11:14 40.71617 1.24257 35151 ft 449 kts 227°
2026-04-25 11:15 40.67408 1.18171 35155 ft 449 kts 227°
2026-04-25 11:15 40.63187 1.12095 35149 ft 449 kts 227°
2026-04-25 11:16 40.57002 1.03214 35154 ft 449 kts 227°
2026-04-25 11:16 40.52777 0.97158 35156 ft 449 kts 227°
2026-04-25 11:17 40.48544 0.91113 35153 ft 449 kts 226°
2026-04-25 11:17 40.44344 0.85133 35156 ft 449 kts 226°
2026-04-25 11:18 40.40074 0.79060 35155 ft 449 kts 226°
2026-04-25 11:18 40.35838 0.73044 35157 ft 448 kts 226°
2026-04-25 11:19 40.31608 0.67045 35160 ft 447 kts 226°
2026-04-25 11:19 40.27413 0.61109 35157 ft 447 kts 226°
2026-04-25 11:20 40.23184 0.55140 35155 ft 447 kts 226°
2026-04-25 11:20 40.18955 0.49185 35151 ft 447 kts 226°
2026-04-25 11:21 40.14719 0.43236 35148 ft 447 kts 226°
2026-04-25 11:21 40.10482 0.37302 35142 ft 447 kts 225°
2026-04-25 11:22 40.06955 0.32366 35132 ft 447 kts 225°
2026-04-25 11:22 40.01999 0.25443 35139 ft 447 kts 225°
2026-04-25 11:23 39.97754 0.19513 35126 ft 447 kts 225°
2026-04-25 11:23 39.93504 0.13588 35125 ft 448 kts 225°
2026-04-25 11:24 39.89249 0.07673 35129 ft 448 kts 225°
2026-04-25 11:24 39.84977 0.01744 35130 ft 448 kts 225°
2026-04-25 11:25 39.80706 -0.04172 35130 ft 449 kts 225°
2026-04-25 11:25 39.76428 -0.10079 35131 ft 449 kts 225°
2026-04-25 11:26 39.72867 -0.14986 35130 ft 449 kts 224°
2026-04-25 11:26 39.68578 -0.20888 35132 ft 449 kts 224°
2026-04-25 11:27 39.64285 -0.26788 35136 ft 449 kts 224°
2026-04-25 11:27 39.60715 -0.31690 35134 ft 450 kts 224°
2026-04-25 11:28 39.55684 -0.38577 35150 ft 450 kts 224°
2026-04-25 11:28 39.51380 -0.44453 35151 ft 450 kts 224°
2026-04-25 11:29 39.47252 -0.50543 35149 ft 451 kts 231°
2026-04-25 11:29 39.43500 -0.56991 35148 ft 451 kts 231°
2026-04-25 11:30 39.39699 -0.63452 35151 ft 451 kts 230°
2026-04-25 11:30 39.35895 -0.69910 35146 ft 451 kts 231°
2026-04-25 11:31 39.32092 -0.76367 35145 ft 451 kts 230°
2026-04-25 11:31 39.28293 -0.82814 35151 ft 451 kts 230°
2026-04-25 11:32 39.24489 -0.89250 35145 ft 451 kts 230°
2026-04-25 11:32 39.20686 -0.95677 35144 ft 451 kts 230°
2026-04-25 11:33 39.16878 -1.02106 35140 ft 451 kts 230°
2026-04-25 11:33 39.13063 -1.08515 35141 ft 451 kts 230°
2026-04-25 11:34 39.09243 -1.14920 35143 ft 451 kts 230°
2026-04-25 11:34 39.05416 -1.21321 35134 ft 452 kts 230°
2026-04-25 11:35 39.01575 -1.27730 35133 ft 452 kts 230°
2026-04-25 11:35 38.97736 -1.34138 35134 ft 453 kts 230°
2026-04-25 11:36 38.93886 -1.40549 35144 ft 453 kts 230°
2026-04-25 11:36 38.90033 -1.46951 35155 ft 453 kts 230°
2026-04-25 11:37 38.86180 -1.53342 35175 ft 453 kts 230°
2026-04-25 11:37 38.82321 -1.59733 35169 ft 453 kts 230°
2026-04-25 11:38 38.78459 -1.66113 35164 ft 453 kts 230°
2026-04-25 11:38 38.74590 -1.72496 35163 ft 453 kts 230°
2026-04-25 11:39 38.70715 -1.78860 35168 ft 453 kts 230°
2026-04-25 11:39 38.66841 -1.85215 35160 ft 453 kts 230°
2026-04-25 11:40 38.62968 -1.91559 35172 ft 453 kts 230°
2026-04-25 11:40 38.59082 -1.97915 35164 ft 454 kts 230°
2026-04-25 11:41 38.55210 -2.04228 35156 ft 454 kts 230°
2026-04-25 11:41 38.51312 -2.10570 35158 ft 454 kts 230°
2026-04-25 11:42 38.47390 -2.16963 35151 ft 454 kts 230°
2026-04-25 11:42 38.43493 -2.23297 35143 ft 454 kts 230°
2026-04-25 11:43 38.39607 -2.29582 35138 ft 454 kts 229°
2026-04-25 11:43 38.35639 -2.35856 35124 ft 454 kts 225°
2026-04-25 11:44 38.31300 -2.41695 35120 ft 454 kts 224°
2026-04-25 11:44 38.26956 -2.47544 35110 ft 455 kts 224°
2026-04-25 11:45 38.22602 -2.53396 35113 ft 456 kts 224°
2026-04-25 11:45 38.18234 -2.59238 35115 ft 456 kts 224°
2026-04-25 11:46 38.13856 -2.65074 35104 ft 457 kts 224°
2026-04-25 11:46 38.09456 -2.70929 35097 ft 458 kts 223°
2026-04-25 11:47 38.05058 -2.76779 35082 ft 458 kts 223°
2026-04-25 11:47 38.00649 -2.82629 35085 ft 459 kts 223°
2026-04-25 11:48 37.96233 -2.88474 35089 ft 460 kts 223°
2026-04-25 11:48 37.91806 -2.94338 35082 ft 460 kts 223°
2026-04-25 11:49 37.87378 -3.00197 35088 ft 461 kts 223°
2026-04-25 11:49 37.82964 -3.06011 35086 ft 461 kts 224°
2026-04-25 11:50 37.78510 -3.11857 35080 ft 462 kts 223°
2026-04-25 11:50 37.74050 -3.17705 35079 ft 462 kts 224°
2026-04-25 11:51 37.69593 -3.23553 35072 ft 462 kts 223°
2026-04-25 11:51 37.65121 -3.29393 35077 ft 463 kts 223°
2026-04-25 11:52 37.60722 -3.35140 35072 ft 464 kts 224°
2026-04-25 11:52 37.56247 -3.40991 35073 ft 464 kts 223°
2026-04-25 11:53 37.51751 -3.46840 35075 ft 464 kts 223°
2026-04-25 11:53 37.49508 -3.49753 34877 ft 462 kts 223°
2026-04-25 11:53 37.47276 -3.52654 34136 ft 462 kts 223°
2026-04-25 11:54 37.45033 -3.55565 33233 ft 464 kts 223°
2026-04-25 11:54 37.42783 -3.58476 32327 ft 465 kts 223°
2026-04-25 11:54 37.37899 -3.63732 30583 ft 462 kts 210°
2026-04-25 11:55 37.35092 -3.65684 29610 ft 461 kts 204°
2026-04-25 11:55 37.32206 -3.67467 28503 ft 464 kts 204°
2026-04-25 11:55 37.29322 -3.69251 27731 ft 459 kts 204°
2026-04-25 11:55 37.26489 -3.71067 26973 ft 456 kts 209°
2026-04-25 11:56 37.24006 -3.73506 26275 ft 454 kts 224°
2026-04-25 11:56 37.22114 -3.76662 25607 ft 453 kts 240°
2026-04-25 11:56 37.20862 -3.80283 24936 ft 451 kts 248°
2026-04-25 11:56 37.19747 -3.83939 24244 ft 448 kts 248°
2026-04-25 11:57 37.18648 -3.87565 23884 ft 438 kts 248°
2026-04-25 11:57 37.17586 -3.91071 23767 ft 422 kts 248°
2026-04-25 11:57 37.16560 -3.94455 23651 ft 409 kts 248°
2026-04-25 11:57 37.15563 -3.97729 23512 ft 396 kts 248°
2026-04-25 11:58 37.14595 -4.00889 23272 ft 381 kts 248°
2026-04-25 11:58 37.13666 -4.03914 22969 ft 374 kts 248°
2026-04-25 11:58 37.12736 -4.06931 22575 ft 370 kts 248°
2026-04-25 11:58 37.11811 -4.09931 22161 ft 367 kts 248°
2026-04-25 11:59 37.10896 -4.12901 21763 ft 364 kts 248°
2026-04-25 11:59 37.09990 -4.15841 21358 ft 361 kts 248°
2026-04-25 11:59 37.09088 -4.18764 20972 ft 358 kts 248°
2026-04-25 12:00 37.07302 -4.24532 20027 ft 351 kts 248°
2026-04-25 12:00 37.06428 -4.27362 19376 ft 347 kts 248°
2026-04-25 12:00 37.04709 -4.32936 18075 ft 339 kts 248°
2026-04-25 12:01 37.03862 -4.35675 17391 ft 336 kts 248°
2026-04-25 12:01 37.03022 -4.38384 16715 ft 332 kts 248°
2026-04-25 12:01 37.02189 -4.41058 16078 ft 328 kts 248°
2026-04-25 12:01 37.01362 -4.43709 15452 ft 325 kts 248°
2026-04-25 12:02 36.99742 -4.48912 14251 ft 319 kts 248°
2026-04-25 12:02 36.98938 -4.51491 13633 ft 316 kts 248°
2026-04-25 12:02 36.98148 -4.54021 13097 ft 309 kts 248°
2026-04-25 12:03 36.97374 -4.56490 12561 ft 302 kts 248°
2026-04-25 12:03 36.96592 -4.58981 11475 ft 314 kts 248°
2026-04-25 12:03 36.95777 -4.61571 10426 ft 324 kts 248°
2026-04-25 12:03 36.94965 -4.64158 9999 ft 310 kts 248°
2026-04-25 12:04 36.94209 -4.66573 9857 ft 287 kts 248°
2026-04-25 12:04 36.93533 -4.68852 9699 ft 274 kts 254°
2026-04-25 12:04 36.93263 -4.71165 9528 ft 266 kts 269°
2026-04-25 12:04 36.93239 -4.73467 9218 ft 263 kts 264°
2026-04-25 12:05 36.92713 -4.75611 8909 ft 257 kts 237°
2026-04-25 12:05 36.91506 -4.77204 8545 ft 252 kts 210°
2026-04-25 12:05 36.89901 -4.77967 8124 ft 245 kts 184°
2026-04-25 12:05 36.88238 -4.77796 7566 ft 239 kts 160°
2026-04-25 12:06 36.86769 -4.77116 7041 ft 237 kts 152°
2026-04-25 12:06 36.85338 -4.76142 6554 ft 233 kts 150°
2026-04-25 12:06 36.83919 -4.75177 6082 ft 231 kts 150°
2026-04-25 12:06 36.82501 -4.74221 5584 ft 232 kts 151°
2026-04-25 12:07 36.81081 -4.73267 5147 ft 231 kts 151°
2026-04-25 12:07 36.79678 -4.72326 4751 ft 226 kts 152°
2026-04-25 12:07 36.78309 -4.71402 4362 ft 221 kts 149°
2026-04-25 12:07 36.77218 -4.70121 3978 ft 215 kts 123°
2026-04-25 12:08 36.76493 -4.68460 3397 ft 221 kts 117°
2026-04-25 12:08 36.75795 -4.66756 2943 ft 218 kts 118°
2026-04-25 12:08 36.75111 -4.65106 2610 ft 209 kts 118°
2026-04-25 12:08 36.74456 -4.63539 2345 ft 200 kts 120°
2026-04-25 12:09 36.73831 -4.62047 2119 ft 188 kts 119°
2026-04-25 12:09 36.73235 -4.60624 1841 ft 180 kts 119°
2026-04-25 12:09 36.72680 -4.59300 1592 ft 164 kts 118°
2026-04-25 12:09 36.72177 -4.58093 1386 ft 149 kts 119°
2026-04-25 12:10 36.71727 -4.57016 1221 ft 136 kts 120°
2026-04-25 12:10 36.71276 -4.55961 1012 ft 138 kts 118°
2026-04-25 12:10 36.70837 -4.54910 832 ft 136 kts 118°
2026-04-25 12:10 36.70406 -4.53880 647 ft 132 kts 118°
2026-04-25 12:11 36.69976 -4.52868 481 ft 133 kts 119°
2026-04-25 12:11 36.69550 -4.51840 304 ft 134 kts 119°
2026-04-25 12:11 36.69127 -4.50830 106 ft 129 kts 119°
2026-04-25 12:11 36.68746 -4.49930 49 ft 96 kts 116°
2026-04-25 12:12 36.68512 -4.49369 47 ft 52 kts 117°
2026-04-25 12:12 36.68421 -4.49153 44 ft 38 kts 118°
2026-04-25 12:12 36.68229 -4.48895 41 ft 18 kts 147°
2026-04-25 12:12 36.68149 -4.48850 39 ft 13 kts 180°
2026-04-25 12:13 36.68147 -4.48931 38 ft 10 kts 292°
2026-04-25 12:13 36.68175 -4.49007 39 ft 10 kts 298°
2026-04-25 12:13 36.68213 -4.49100 40 ft 16 kts 297°
2026-04-25 12:13 36.68252 -4.49192 39 ft 20 kts 298°
2026-04-25 12:14 36.68324 -4.49364 41 ft 25 kts 298°
2026-04-25 12:14 36.68337 -4.49395 40 ft 0 kts 298°
2026-04-25 12:14 36.68345 -4.49404 41 ft 2 kts 322°
2026-04-25 12:15 36.68346 -4.49413 41 ft 1 kts 264°
2026-04-25 12:15 36.68330 -4.49392 39 ft 6 kts 104°
2026-04-25 12:15 36.68291 -4.49327 40 ft 12 kts 168°
2026-04-25 12:15 36.68215 -4.49391 41 ft 14 kts 222°
2026-04-25 12:16 36.68137 -4.49478 42 ft 16 kts 222°
2026-04-25 12:16 36.68045 -4.49580 42 ft 19 kts 222°
2026-04-25 12:16 36.67942 -4.49693 42 ft 21 kts 221°
2026-04-25 12:16 36.67839 -4.49805 42 ft 15 kts 208°
2026-04-25 12:17 36.67766 -4.49753 42 ft 14 kts 130°
2026-04-25 12:17 36.67698 -4.49655 42 ft 16 kts 131°
2026-04-25 12:17 36.67627 -4.49557 42 ft 7 kts 131°
2026-04-25 12:17 36.67625 -4.49513 42 ft 6 kts 63°
2026-04-25 12:18 36.67649 -4.49485 41 ft 0 kts 40°
2026-04-25 12:18 36.67656 -4.49476 42 ft 2 kts 41°
2026-04-25 12:18 36.67665 -4.49467 42 ft 0 kts 41°